This demonstration page uses our WeatherBlox Daily Observations layout. Learn more.

Left ArrowRight Arrow

Hourly Observations for October 8, 2020

Temp ( °F °C ) Dew Point ( °F °C ) Humidity (%) Winds ( mph kmh ) Pressure ( in mb ) Visibility ( mi km ) Precip ( " mm )
12:53 am 00:53 Clear 65 18.3 42 5.6 43 43 SSE 9 15 29.92 1013 10 16 0.00 0.00
1:53 am 01:53 Clear 63 17.2 42 5.6 47 47 ESE 8 13 29.92 1013 10 16 0.00 0.00
2:53 am 02:53 Clear 62 16.7 43 6.1 50 50 SE 8 13 29.92 1013 10 16 0.00 0.00
3:53 am 03:53 Clear 59 15 43 6.1 56 56 E 6 9 29.92 1013 10 16 0.00 0.00
4:53 am 04:53 Clear 59 15 45 7.2 60 60 E 6 9 29.91 1013 10 16 0.00 0.00
5:53 am 05:53 Clear 62 16.7 48 8.9 60 60 ESE 10 17 29.91 1013 10 16 0.00 0.00
6:53 am 06:53 Clear 62 16.7 50 10 65 65 ESE 10 17 29.92 1013 10 16 0.00 0.00
7:53 am 07:53 Sunny 63 17.2 51 10.6 65 65 ESE 10 17 29.94 1014 10 16 0.00 0.00
8:53 am 08:53 Sunny 63 17.2 51 10.6 65 65 E 7 11 29.95 1014 9 14 0.00 0.00
9:53 am 09:53 Sunny 69 20.6 52 11.1 55 55 SE 10 17 29.96 1015 10 16 0.00 0.00
10:53 am 10:53 Sunny 74 23.3 53 11.7 48 48 SE 10 17 29.97 1015 10 16 0.00 0.00
11:53 am 11:53 Sunny 79 26.1 51 10.6 38 38 SE 9 15 29.95 1014 10 16 0.00 0.00
12:53 pm 12:53 Sunny 82 27.8 51 10.6 34 34 VRB 3 6 29.92 1013 10 16 0.00 0.00
1:53 pm 13:53 Sunny 86 30 46 7.8 25 25 ESE 9 15 29.89 1012 10 16 0.00 0.00
2:53 pm 14:53 Sunny 88 31.1 43 6.1 21 21 SSW 7 11 29.85 1011 10 16 0.00 0.00
3:53 pm 15:53 Sunny 89 31.7 40 4.4 18 18 S 6 9 29.83 1010 7 11 0.00 0.00
4:53 pm 16:53 Sunny 90 32.2 37 2.8 15 15 ESE 6 9 29.81 1010 10 16 0.00 0.00
5:53 pm 17:53 Sunny 90 32.2 35 1.7 14 14 SSE 7 11 29.80 1009 10 16 0.00 0.00
6:53 pm 18:53 Sunny 88 31.1 34 1.1 15 15 SE 5 7 29.80 1009 10 16 0.00 0.00
7:53 pm 19:53 Clear 79 26.1 37 2.8 22 22 SE 6 9 29.83 1010 10 16 0.00 0.00
8:53 pm 20:53 Clear 77 25 40 4.4 26 26 SE 9 15 29.85 1011 10 16 0.00 0.00
9:53 pm 21:53 Clear 76 24.4 44 6.7 32 32 SE 12 19 29.85 1011 10 16 0.00 0.00
10:53 pm 22:53 Clear 73 22.8 44 6.7 35 35 SE 8 13 29.86 1011 10 16 0.00 0.00
11:53 pm 23:53 Clear 69 20.6 44 6.7 41 41 SE 8 13 29.86 1011 10 16 0.00 0.00

Powered by AerisWeather